User: anonymous   Login
Location: Unspecified
(0.0000°N, 0.0000°E)
Time: 20:09:08
(UTC+00:00)
Language:

STARLINK-32171 - Orbit

View from above orbital plane
View from above orbital plane
View from above satellite
View from above satellite

Ground track
Ground track

The orbit is defined by the following mean orbital elements,

1 60332U          26145.53773751 +.00000000 +00000-0 +26954-7 0 00006
2 60332  53.1602  78.4909 0001653  92.3035 267.8155 15.30188188    04
Epoch (UTC): 25 May 2026 12:54:20
Eccentricity: 0.0001653
inclination: 53.1602°
perigee height: 474 km
apogee height: 476 km
right ascension of ascending node: 78.4909°
argument of perigee: 92.3035°
revolutions per day: 15.30188188
mean anomaly at epoch: 267.8155°

The dashed part of the orbit path shows where the satellite is in the earth's shadow,  

DLR